Regional Weather Roundup
Issued by NWS

Home | Current Version | Previous Version | Text Only | Print | Product List | Glossary On
Versions: 1 2 3 4 5 6 7 8 9 10 11 12 13 14 15 16 17 18 19 20 21 22 23 24 25 26 27 28 29 30 31 32 33 34 35 36 37 38 39 40 41 42 43 44 45 46 47 48
000
ASUS44 KBMX 311610
RWRAL

ALABAMA REGIONAL WEATHER ROUNDUP
NATIONAL WEATHER SERVICE BIRMINGHAM AL
1100 AM CDT FRI JUL 31 2015

NOTE: "FAIR" INDICATES FEW OR NO CLOUDS BELOW 12,000 FEET
WITH NO SIGNIFICANT WEATHER AND/OR OBSTRUCTIONS TO VISIBILITY.

THE REMARK "TC" DENOTES TEMPERATURE IN DEGREES CELSIUS.

ALZ001>011-014-016>018-020-311700-
NORTH ALABAMA

CITY           SKY/WX    TMP DP  RH WIND       PRES   REMARKS
MUSCLE SHOALS  SUNNY     85  62  46 NE9       30.08F
HUNTSVILLE     MOSUNNY   86  60  41 NE17G25   30.06F
DECATUR        SUNNY     83  61  47 NE10G18   30.07F
HALEYVILLE     FAIR      83  63  50 VRB6      30.10F
GADSDEN        SUNNY     86  57  37 N17       30.02S
$$

ALZ012-013-022-023-030>036-040>044-311700-
WEST CENTRAL ALABAMA

CITY           SKY/WX    TMP DP  RH WIND       PRES   REMARKS
TUSCALOOSA     SUNNY     87  60  40 NE15G24   30.02S
$$

ALZ015-024>027-033>036-040>044-311700-
CENTRAL ALABAMA

CITY           SKY/WX    TMP DP  RH WIND       PRES   REMARKS
BIRMINGHAM     MOSUNNY   84  61  45 N18       30.04S
MONTGOMERY     SUNNY     87  70  56 N6        29.96S HX  92
SHELBY CO ARPT SUNNY     84  65  52 N10G16    30.01R
MAXWELL AFB    SUNNY     85  71  61 NW6       29.96R HX  90
GREENVILLE     FAIR      91  70  49 N6        29.95S HX  96
$$

ALZ019-021-028-029-037-038-045>048-311700-
EAST CENTRAL ALABAMA

CITY           SKY/WX    TMP DP  RH WIND       PRES   REMARKS
ANNISTON       SUNNY     85  62  46 N13       30.00F
ALEXANDER CITY SUNNY     85  66  52 N3        29.99R
AUBURN         SUNNY     86  75  70 CALM      29.99R HX  95
$$

ALZ051>064-311700-
SOUTHWEST ALABAMA

CITY           SKY/WX    TMP DP  RH WIND       PRES   REMARKS
MOBILE         MOSUNNY   85  74  69 N8        29.96R HX  92
BROOKLEY FIELD MOSUNNY   86  74  67 N8        29.95S HX  94
EVERGREEN      SUNNY     90  74  59 VRB3      29.95S HX  99
$$

ALZ049-050-065>069-311700-
SOUTHEAST ALABAMA

CITY           SKY/WX    TMP DP  RH WIND       PRES   REMARKS
DOTHAN         PTSUNNY   88  76  67 SE7       29.98S HX  99
OZARK          PTSUNNY   87  78  74 SW3       29.95S HX  99
TROY           SUNNY     91  72  53 CALM      29.96S HX  98
EUFAULA        FAIR      90  77  65 VRB5      29.94R HX 103
$$


USA.gov is the U.S. government's official web portal to all federal, state and local government web resources and services.